This demonstration page uses our WeatherBlox Daily Observations layout. Learn more.

Left ArrowRight Arrow

Hourly Observations for January 3, 2022

Temp ( °F °C ) Dew Point ( °F °C ) Humidity (%) Winds ( mph kmh ) Pressure ( in mb ) Visibility ( mi km ) Precip ( " mm )
12:53 am 00:53 Clear 22 -5.6 15 -9.4 75 75 N 5 7 30.42 1030 10 16 0.00 0.00
1:53 am 01:53 Clear 21 -6.1 15 -9.4 78 78 N 5 7 30.41 1030 10 16 0.00 0.00
2:53 am 02:53 Clear 20 -6.7 16 -8.9 85 85 N 6 9 30.41 1030 10 16 0.00 0.00
3:53 am 03:53 Clear 18 -7.8 14 -10 84 84 N 7 11 30.41 1030 10 16 0.00 0.00
4:53 am 04:53 Clear 18 -7.8 14 -10 84 84 N 7 11 30.40 1030 10 16 0.00 0.00
5:53 am 05:53 Clear 17 -8.3 13 -10.6 84 84 N 6 9 30.40 1030 10 16 0.00 0.00
6:53 am 06:53 Clear 16 -8.9 12 -11.1 84 84 N 7 11 30.41 1030 10 16 0.00 0.00
7:53 am 07:53 Clear 15 -9.4 11 -11.7 84 84 N 7 11 30.43 1030 10 16 0.00 0.00
8:53 am 08:53 Sunny 22 -5.6 15 -9.4 75 75 N 3 6 30.42 1030 10 16 0.00 0.00
9:53 am 09:53 Sunny 31 -0.6 14 -10 49 49 SE 3 6 30.41 1030 10 16 0.00 0.00
10:53 am 10:53 Sunny 38 3.3 11 -11.7 33 33 SSE 6 9 30.40 1029 10 16 0.00 0.00
11:53 am 11:53 Sunny 43 6.1 10 -12.2 26 26 S 7 11 30.37 1029 10 16 0.00 0.00
12:53 pm 12:53 Sunny 46 7.8 8 -13.3 21 21 SSE 5 7 30.32 1027 10 16 0.00 0.00
1:53 pm 13:53 Sunny 50 10 7 -13.9 17 17 S 3 6 30.27 1025 10 16 0.00 0.00
2:53 pm 14:53 Sunny 53 11.7 6 -14.4 15 15 VRB 5 7 30.23 1024 10 16 0.00 0.00
3:53 pm 15:53 Sunny 55 12.8 3 -16.1 12 12 SE 6 9 30.20 1023 10 16 0.00 0.00
4:53 pm 16:53 Sunny 54 12.2 5 -15 14 14 SSE 8 13 30.20 1023 10 16 0.00 0.00
5:53 pm 17:53 Sunny 50 10 7 -13.9 17 17 SE 5 7 30.20 1023 10 16 0.00 0.00
6:53 pm 18:53 Clear 51 10.6 3 -16.1 14 14 Calm 30.20 1023 10 16 0.00 0.00
7:53 pm 19:53 Clear 46 7.8 10 -12.2 23 23 Calm 30.22 1023 10 16 0.00 0.00
8:53 pm 20:53 Clear 43 6.1 11 -11.7 27 27 SSE 9 15 30.20 1023 10 16 0.00 0.00
9:53 pm 21:53 Clear 41 5 11 -11.7 29 29 ESE 5 7 30.20 1023 10 16 0.00 0.00
10:53 pm 22:53 Clear 39 3.9 11 -11.7 31 31 SE 9 15 30.15 1021 10 16 0.00 0.00
11:53 pm 23:53 Clear 34 1.1 12 -11.1 40 40 SSE 8 13 30.14 1021 10 16 0.00 0.00

Powered by AerisWeather